GW6966 Weather Reports


time (UTC)temp
C
wind
direction
speed
KPH
gust
KPH
rain 1hr
cm
rain 24hr
cm
rain mn
cm
humidity
%
barometer
mb
20260509124010 16 346 0.0 0.0 0.00 0.00 0.00 91 1012.6
20260509123508 16 341 0.0 0.0 0.00 0.00 0.00 92 1012.6
20260509123004 16 341 0.0 0.0 0.00 0.00 0.00 92 1012.6
20260509122500 15 341 0.0 0.0 0.00 0.00 0.00 92 1012.4
20260509121957 15 341 0.0 0.0 0.00 0.00 0.00 92 1012.5
20260509121454 15 341 0.0 0.0 0.00 0.00 0.00 92 1012.6
20260509120952 15 341 0.0 0.0 0.00 0.00 0.00 93 1012.7
20260509120449 15 341 0.0 0.0 0.00 0.00 0.00 93 1012.3
20260509115947 15 341 0.0 0.0 0.00 0.00 0.00 93 1012.6
20260509115444 15 341 0.0 0.0 0.00 0.00 0.00 93 1012.7
20260509114942 15 341 0.0 0.0 0.00 0.00 0.00 93 1012.6
20260509114440 15 341 0.0 0.0 0.00 0.00 0.00 93 1012.4
20260509113939 15 341 0.0 0.0 0.00 0.00 0.00 93 1012.4
20260509113436 15 341 0.0 0.0 0.00 0.00 0.00 93 1012.3
20260509112933 15 341 0.0 0.0 0.00 0.00 0.00 93 1012.6
20260509112430 15 341 0.0 0.0 0.00 0.00 0.00 93 1012.3
20260509111927 15 341 0.0 0.0 0.00 0.00 0.00 93 1012.5
20260509111424 15 341 0.0 0.0 0.00 0.00 0.00 93 1012.6
20260509110922 15 341 0.0 0.0 0.00 0.00 0.00 93 1012.6
20260509110417 15 341 0.0 0.0 0.00 0.00 0.00 93 1012.5
20260509105916 15 341 0.0 0.0 0.00 0.00 0.00 93 1012.6
20260509105414 15 342 0.0 0.0 0.00 0.00 0.00 93 1012.6
20260509104910 15 343 0.0 0.0 0.00 0.00 0.00 92 1012.0
20260509104407 15 344 0.0 0.0 0.00 0.00 0.00 92 1011.7
20260509103905 15 344 0.0 0.0 0.00 0.00 0.00 92 1012.1
20260509103402 15 344 0.0 0.0 0.00 0.00 0.00 92 1012.2
20260509102901 15 344 0.0 0.0 0.00 0.00 0.00 92 1012.2
20260509102357 15 344 0.0 0.0 0.00 0.00 0.00 92 1012.4
20260509101853 15 344 0.0 0.0 0.00 0.00 0.00 92 1012.0
20260509101349 15 344 0.0 0.0 0.00 0.00 0.00 92 1012.2
20260509100847 15 344 0.0 0.0 0.00 0.00 0.00 92 1012.3
20260509100344 15 344 0.0 0.0 0.00 0.00 0.00 92 1012.3
20260509095841 15 344 0.0 0.0 0.00 0.00 0.00 92 1012.5
20260509095338 15 321 0.0 0.0 0.00 0.00 0.00 92 1012.9
20260509094835 15 321 0.0 0.0 0.00 0.00 0.00 92 1012.8
20260509094332 15 321 0.0 0.0 0.00 0.00 0.00 92 1012.9
20260509093830 15 321 0.0 0.0 0.00 0.00 0.00 92 1012.8
20260509093326 15 24 0.0 0.0 0.00 0.00 0.00 92 1012.7
20260509092825 15 333 0.0 0.0 0.00 0.00 0.00 92 1012.8
20260509092323 15 333 0.0 0.0 0.00 0.00 0.00 92 1013.0
20260509091820 15 333 0.0 0.0 0.00 0.00 0.00 92 1013.0
20260509091317 15 333 0.0 0.0 0.00 0.00 0.00 93 1012.6
20260509090814 15 333 0.0 0.0 0.00 0.00 0.00 93 1012.4
20260509090311 14 333 0.0 0.0 0.00 0.00 0.00 93 1012.6
20260509085809 14 333 0.0 0.0 0.00 0.00 0.00 93 1012.8
20260509085307 14 333 0.0 0.0 0.00 0.00 0.00 93 1012.7
20260509084803 14 333 0.0 0.0 0.00 0.00 0.00 93 1012.7
20260509084259 14 333 0.0 0.0 0.00 0.00 0.00 93 1012.7
20260509083757 14 333 0.0 0.0 0.00 0.00 0.00 93 1012.5
20260509083253 14 333 0.0 0.0 0.00 0.00 0.00 93 1012.6
20260509082750 14 333 0.0 0.0 0.00 0.00 0.00 93 1012.5
20260509082247 14 333 0.0 0.0 0.00 0.00 0.00 93 1012.9
20260509081744 14 333 0.0 0.0 0.00 0.00 0.00 93 1012.5
20260509081241 13 333 0.0 0.0 0.00 0.00 0.00 93 1012.2
20260509080739 13 333 0.0 0.0 0.00 0.00 0.00 93 1012.3
20260509080237 13 333 0.0 0.0 0.00 0.00 0.00 93 1012.3
20260509075735 13 333 0.0 0.0 0.00 0.00 0.00 92 1012.3
20260509075232 13 333 0.0 0.0 0.00 0.00 0.00 92 1012.5
20260509074729 13 333 0.0 0.0 0.00 0.00 0.00 92 1012.6
20260509074227 14 333 0.0 0.0 0.00 0.00 0.00 92 1012.4
20260509073722 14 333 0.0 0.0 0.00 0.00 0.00 93 1012.5
20260509073219 13 333 0.0 0.0 0.00 0.00 0.00 93 1012.5
20260509072716 13 333 0.0 0.0 0.00 0.00 0.00 93 1012.3
20260509072213 13 333 0.0 0.0 0.00 0.00 0.00 93 1012.3
20260509071709 13 333 0.0 0.0 0.00 0.00 0.00 92 1012.2
20260509071207 13 333 0.0 0.0 0.00 0.00 0.00 92 1012.1
20260509070703 13 333 0.0 0.0 0.00 0.00 0.00 92 1012.2
20260509070200 13 333 0.0 0.0 0.00 0.00 0.00 92 1012.2
20260509065656 13 333 0.0 0.0 0.00 0.00 0.00 91 1012.4
20260509065152 13 333 0.0 0.0 0.00 0.00 0.00 91 1012.3
20260509064649 14 333 0.0 0.0 0.00 0.00 0.00 90 1012.5
20260509064147 14 333 0.0 0.0 0.00 0.00 0.00 90 1012.5
20260509063644 14 333 0.0 0.0 0.00 0.00 0.00 90 1012.7
20260509063140 14 333 0.0 0.0 0.00 0.00 0.00 90 1012.8
20260509062637 14 333 0.0 0.0 0.00 0.00 0.00 90 1012.8
20260509062134 14 333 0.0 0.0 0.00 0.00 0.00 90 1013.0
20260509061631 14 333 0.0 0.0 0.00 0.00 0.00 90 1013.4
20260509061129 14 333 0.0 0.0 0.00 0.00 0.00 90 1013.4
20260509060626 14 333 0.0 0.0 0.00 0.00 0.00 90 1013.5
20260509060121 14 333 0.0 0.0 0.00 0.00 0.00 90 1013.6
20260509055617 14 333 0.0 0.0 0.00 0.00 0.00 90 1013.8
20260509055113 14 333 0.0 0.0 0.00 0.00 0.00 90 1014.0
20260509054610 14 333 0.0 0.0 0.00 0.00 0.00 91 1014.0
20260509054108 14 333 0.0 0.0 0.00 0.00 0.00 91 1013.8
20260509053607 14 333 0.0 0.0 0.00 0.00 0.00 91 1013.9
20260509053103 14 333 0.0 0.0 0.00 0.00 0.00 91 1013.7
20260509052601 13 333 0.0 0.0 0.00 0.00 0.00 91 1013.7
20260509052059 13 333 0.0 0.0 0.00 0.00 0.00 90 1013.4
20260509051556 13 333 0.0 0.0 0.00 0.00 0.00 90 1013.4
20260509051053 13 333 0.0 0.0 0.00 0.00 0.00 90 1013.6
20260509050550 14 333 0.0 0.0 0.00 0.00 0.00 89 1013.7
20260509050046 14 333 0.0 0.0 0.00 0.00 0.00 89 1013.6
20260509045544 14 333 0.0 0.0 0.00 0.00 0.00 89 1013.7
20260509045041 14 333 0.0 0.0 0.00 0.00 0.00 89 1013.7
20260509044538 14 333 0.0 0.0 0.00 0.00 0.00 89 1013.7
20260509044035 14 333 0.0 0.0 0.00 0.00 0.00 89 1014.0
20260509043532 14 333 0.0 0.0 0.00 0.00 0.00 89 1013.9
20260509043027 14 333 0.0 0.0 0.00 0.00 0.00 89 1013.9
20260509042524 14 333 0.0 0.0 0.00 0.00 0.00 88 1013.9
20260509042020 14 333 0.0 0.0 0.00 0.00 0.00 87 1013.8
20260509041517 14 333 0.0 0.0 0.00 0.00 0.00 87 1013.7
20260509041015 15 333 0.0 0.0 0.00 0.00 0.00 87 1014.0
20260509040513 15 333 0.0 0.0 0.00 0.00 0.00 86 1014.1
20260509040009 15 333 0.0 0.0 0.00 0.00 0.00 86 1014.3
20260509035506 15 333 0.0 0.0 0.00 0.00 0.00 85 1014.4
20260509035003 15 333 0.0 0.0 0.00 0.00 0.00 85 1014.4
20260509034501 15 333 0.0 0.0 0.00 0.00 0.00 84 1014.2
20260509033957 15 333 0.0 0.0 0.00 0.00 0.00 84 1014.2
20260509033454 15 333 0.0 0.0 0.00 0.00 0.00 83 1014.4
20260509032951 15 333 0.0 0.0 0.00 0.00 0.00 83 1014.7
20260509032448 15 333 0.0 0.0 0.00 0.00 0.00 83 1014.8
20260509031946 15 333 0.0 0.0 0.00 0.00 0.00 82 1014.8
20260509031443 15 333 0.0 0.0 0.00 0.00 0.00 81 1014.7
20260509030940 15 333 0.0 0.0 0.00 0.00 0.00 81 1014.7
20260509030439 16 333 0.0 0.0 0.00 0.00 0.00 81 1014.6
20260509025935 16 333 0.0 0.0 0.00 0.00 0.00 80 1014.7
20260509025431 16 334 0.0 0.0 0.00 0.00 0.00 79 1014.9
20260509024926 16 334 0.0 0.0 0.00 0.00 0.00 78 1014.8
20260509024422 16 333 0.0 0.0 0.00 0.00 0.00 78 1014.7
20260509023919 16 333 0.0 0.0 0.00 0.00 0.00 78 1014.8
20260509023417 16 333 0.0 0.0 0.00 0.00 0.00 76 1015.0
20260509022913 16 334 0.0 0.0 0.00 0.00 0.00 76 1014.9
20260509022411 16 334 0.0 0.0 0.00 0.00 0.00 75 1014.8
20260509021908 16 334 0.0 0.0 0.00 0.00 0.00 74 1014.9
20260509021405 16 333 0.0 0.0 0.00 0.00 0.00 76 1014.9
20260509020902 17 333 0.0 0.0 0.00 0.00 0.00 74 1014.9
20260509020400 17 28 0.0 0.0 0.00 0.00 0.00 73 1014.8
20260509015857 17 28 0.0 0.0 0.00 0.00 0.00 74 1014.7
20260509015355 17 28 0.0 0.0 0.00 0.00 0.00 74 1014.8
20260509014852 17 28 0.0 0.0 0.00 0.00 0.00 74 1014.7
20260509014349 17 21 0.0 0.0 0.00 0.00 0.00 74 1014.7
20260509013845 17 21 0.0 0.0 0.00 0.00 0.00 73 1014.7
20260509013342 17 14 0.0 0.0 0.00 0.00 0.00 72 1014.7
20260509012838 17 324 0.0 0.0 0.00 0.00 0.00 72 1014.8
20260509012334 17 313 0.0 0.0 0.00 0.00 0.00 72 1014.8
20260509011832 17 89 0.0 0.0 0.00 0.00 0.00 72 1014.4
20260509011329 17 79 0.0 0.0 0.00 0.00 0.00 71 1014.6
20260509010827 17 122 0.0 0.0 0.00 0.00 0.00 71 1014.6
20260509010324 17 124 0.0 0.0 0.00 0.00 0.00 69 1014.3
20260509005821 17 320 0.0 0.0 0.00 0.00 0.00 70 1014.6
20260509005319 17 282 0.0 0.0 0.00 0.00 0.00 70 1014.4
20260509004819 17 188 0.0 0.0 0.00 0.00 0.00 69 1014.6
20260509004316 17 188 0.0 0.0 0.00 0.00 0.00 70 1014.3
20260509003814 17 192 0.0 0.0 0.00 0.00 0.00 69 1014.6
20260509003312 17 192 0.0 0.0 0.00 0.00 0.00 68 1014.4
20260509002809 18 178 0.0 0.0 0.00 0.00 0.00 68 1014.6
20260509002306 18 217 0.0 0.0 0.00 0.00 0.00 67 1014.4
20260509001804 18 158 0.0 1.6 0.00 0.00 0.00 66 1014.7
20260509001259 18 157 0.0 0.0 0.00 0.00 0.00 65 1014.8
20260509000757 18 199 0.0 0.0 0.00 0.00 0.00 65 1014.7
20260509000256 18 199 0.0 0.0 0.00 0.00 0.00 65 1014.4
20260508235751 18 199 0.0 0.0 0.00 0.00 0.00 65 1014.6
20260508235248 18 212 0.0 0.0 0.00 0.00 0.00 64 1014.6
20260508234745 18 155 0.0 0.0 0.00 0.00 0.00 63 1014.3
20260508234241 18 134 0.0 0.0 0.00 0.00 0.00 62 1014.4
20260508233741 18 132 0.0 0.0 0.00 0.00 0.00 62 1014.3
20260508233238 18 119 0.0 0.0 0.00 0.00 0.00 63 1014.4
20260508232736 18 119 0.0 0.0 0.00 0.00 0.00 62 1014.1
20260508232232 19 184 0.0 0.0 0.00 0.00 0.00 61 1014.0
20260508231730 19 264 0.0 0.0 0.00 0.00 0.00 60 1014.2
20260508231226 19 269 0.0 0.0 0.00 0.00 0.00 60 1014.2
20260508230723 19 290 0.0 0.0 0.00 0.00 0.00 61 1014.4
20260508230219 19 291 0.0 0.0 0.00 0.00 0.00 61 1014.1
20260508225718 19 290 0.0 0.0 0.00 0.00 0.00 64 1014.0
20260508225214 19 290 0.0 0.0 0.00 0.00 0.00 61 1014.1
20260508224712 20 290 0.0 0.0 0.00 0.00 0.00 60 1014.0
20260508224209 20 290 0.0 0.0 0.00 0.00 0.00 59 1014.0
20260508223707 20 81 0.0 0.0 0.00 0.00 0.00 58 1014.2
20260508223204 20 64 0.0 0.0 0.00 0.00 0.00 61 1014.0
20260508222701 20 31 0.0 0.0 0.00 0.00 0.00 59 1014.2
20260508222158 20 331 0.0 0.0 0.00 0.00 0.00 61 1014.3
20260508221654 20 301 0.0 0.0 0.00 0.00 0.00 61 1014.1
20260508221150 20 110 0.0 0.0 0.00 0.00 0.00 59 1014.4
20260508220647 20 110 0.0 0.0 0.00 0.00 0.00 60 1014.3
20260508220144 20 110 0.0 0.0 0.00 0.00 0.00 58 1014.1
20260508215640 20 123 0.0 0.0 0.00 0.00 0.00 58 1014.3
20260508215137 20 144 0.0 0.0 0.00 0.00 0.00 57 1014.0
20260508214634 20 126 0.0 0.0 0.00 0.00 0.00 58 1014.1
20260508214131 20 126 0.0 0.0 0.00 0.00 0.00 58 1014.3
20260508213628 20 126 0.0 0.0 0.00 0.00 0.00 58 1014.4
20260508213124 20 120 0.0 0.0 0.00 0.00 0.00 56 1014.2
20260508212620 20 120 0.0 0.0 0.00 0.00 0.00 58 1014.3
20260508212117 20 115 0.0 0.0 0.00 0.00 0.00 54 1014.2
20260508211612 20 123 0.0 0.0 0.00 0.00 0.00 57 1014.3
20260508211109 20 129 0.0 0.0 0.00 0.00 0.00 53 1014.2
20260508210605 20 130 0.0 0.0 0.00 0.00 0.00 57 1014.3
20260508205600 20 131 0.0 0.0 0.00 0.00 0.00 60 1014.3
20260508205056 20 131 0.0 0.0 0.00 0.00 0.00 59 1014.1
20260508204552 20 131 0.0 0.0 0.00 0.00 0.00 56 1014.2
20260508204048 20 131 0.0 0.0 0.00 0.00 0.00 57 1014.3
20260508203545 20 131 0.0 0.0 0.00 0.00 0.00 59 1014.4
20260508203041 20 131 0.0 0.0 0.00 0.00 0.00 57 1014.6
20260508202538 20 131 0.0 0.0 0.00 0.00 0.00 56 1014.7
20260508202035 20 131 0.0 0.0 0.00 0.00 0.00 53 1014.6
20260508201531 20 131 0.0 0.0 0.00 0.00 0.00 53 1014.7
20260508201028 20 131 0.0 0.0 0.00 0.00 0.00 51 1014.8
20260508200525 20 130 0.0 0.0 0.00 0.00 0.00 54 1014.6
20260508200021 20 130 0.0 0.0 0.00 0.00 0.00 55 1014.3
20260508195518 20 130 0.0 0.0 0.00 0.00 0.00 53 1014.4
20260508195014 20 130 0.0 0.0 0.00 0.00 0.00 54 1014.4
20260508194511 20 147 1.6 1.6 0.00 0.00 0.00 50 1014.8
20260508194008 20 107 0.0 0.0 0.00 0.00 0.00 53 1015.0
20260508193504 20 107 0.0 0.0 0.00 0.00 0.00 49 1015.1
20260508193001 20 108 0.0 0.0 0.00 0.00 0.00 52 1015.3
20260508192458 20 91 0.0 0.0 0.00 0.00 0.00 52 1015.2
20260508191955 21 122 0.0 0.0 0.00 0.00 0.00 51 1015.3
20260508191452 21 127 0.0 0.0 0.00 0.00 0.00 47 1015.2
20260508190949 21 285 0.0 0.0 0.00 0.00 0.00 49 1015.2
20260508190446 21 276 1.6 1.6 0.00 0.00 0.00 42 1015.7
20260508185942 20 140 0.0 0.0 0.00 0.00 0.00 48 1015.6
20260508185440 20 136 0.0 1.6 0.00 0.00 0.00 49 1015.8
20260508184937 20 340 0.0 0.0 0.00 0.00 0.00 51 1015.8
20260508184434 21 37 0.0 0.0 0.00 0.00 0.00 45 1015.9
20260508183931 20 216 0.0 0.0 0.00 0.00 0.00 45 1015.9
20260508183427 21 115 0.0 0.0 0.00 0.00 0.00 44 1016.2
20260508182922 21 278 0.0 0.0 0.00 0.00 0.00 51 1016.2
20260508182420 21 114 0.0 0.0 0.00 0.00 0.00 52 1015.9
20260508181915 21 148 0.0 0.0 0.00 0.00 0.00 52 1016.0
20260508181412 20 274 1.6 1.6 0.00 0.00 0.00 51 1016.1
20260508180909 20 127 0.0 0.0 0.00 0.00 0.00 49 1016.0
20260508180406 20 281 0.0 0.0 0.00 0.00 0.00 46 1016.2
20260508175902 20 274 0.0 0.0 0.00 0.00 0.00 46 1016.1
20260508175359 20 243 0.0 0.0 0.00 0.00 0.00 47 1016.3
20260508174857 20 264 0.0 0.0 0.00 0.00 0.00 52 1016.5
20260508174354 20 277 0.0 1.6 0.00 0.00 0.00 50 1016.5
20260508173850 20 200 0.0 0.0 0.00 0.00 0.00 49 1016.3
20260508173348 21 138 0.0 0.0 0.00 0.00 0.00 52 1016.2
20260508172843 21 290 0.0 0.0 0.00 0.00 0.00 58 1016.5
20260508172341 20 272 0.0 0.0 0.00 0.00 0.00 56 1016.6
20260508171837 20 318 0.0 0.0 0.00 0.00 0.00 56 1016.8
20260508171333 20 142 3.2 3.2 0.00 0.00 0.00 51 1016.9
20260508170830 20 285 1.6 3.2 0.00 0.00 0.00 54 1016.9
20260508170328 20 120 1.6 3.2 0.00 0.00 0.00 52 1017.0
20260508165825 20 84 0.0 0.0 0.00 0.00 0.00 56 1016.9
20260508165322 20 152 0.0 0.0 0.00 0.00 0.00 60 1017.1
20260508164818 20 287 1.6 1.6 0.00 0.00 0.00 56 1017.2
20260508164315 20 122 0.0 0.0 0.00 0.00 0.00 55 1017.5
20260508163813 20 126 0.0 0.0 0.00 0.00 0.00 58 1017.5
20260508163310 20 298 0.0 0.0 0.00 0.00 0.00 59 1017.5
20260508162806 19 307 0.0 1.6 0.00 0.00 0.00 61 1017.2
20260508162306 18 109 3.2 3.2 0.00 0.00 0.00 58 1017.6
20260508161800 18 132 0.0 0.0 0.00 0.00 0.00 61 1017.7
20260508161257 18 258 0.0 0.0 0.00 0.00 0.00 60 1017.7
20260508160755 18 110 0.0 0.0 0.00 0.00 0.00 62 1018.0
20260508160253 18 303 0.0 1.6 0.00 0.00 0.00 63 1018.1
20260508155749 18 251 0.0 0.0 0.00 0.00 0.00 64 1018.1
20260508155246 18 125 0.0 0.0 0.00 0.00 0.00 62 1017.8
20260508154743 18 144 1.6 1.6 0.00 0.00 0.00 63 1018.2
20260508154241 18 120 0.0 0.0 0.00 0.00 0.00 66 1018.4
20260508153737 18 128 0.0 0.0 0.00 0.00 0.00 64 1018.4
20260508153235 18 125 0.0 0.0 0.00 0.00 0.00 65 1018.5
20260508152731 17 17 0.0 0.0 0.00 0.00 0.00 71 1018.5
20260508152226 17 300 0.0 1.6 0.00 0.00 0.00 66 1018.4
20260508151723 17 140 0.0 0.0 0.00 0.00 0.00 70 1018.5
20260508151220 17 140 0.0 0.0 0.00 0.00 0.00 69 1018.4
20260508150716 16 127 1.6 1.6 0.00 0.00 0.00 69 1018.6
20260508150213 17 108 0.0 0.0 0.00 0.00 0.00 71 1018.4
20260508145709 16 128 0.0 0.0 0.00 0.00 0.00 69 1018.4
20260508145205 17 45 0.0 0.0 0.00 0.00 0.00 71 1018.6
20260508144703 17 112 0.0 0.0 0.00 0.00 0.00 73 1018.5
20260508144200 16 120 0.0 0.0 0.00 0.00 0.00 70 1018.5
20260508143658 16 112 0.0 0.0 0.00 0.00 0.00 72 1018.6
20260508143155 16 113 0.0 0.0 0.00 0.00 0.00 75 1018.5
20260508142651 16 107 0.0 0.0 0.00 0.00 0.00 76 1018.5
20260508142148 16 107 0.0 0.0 0.00 0.00 0.00 75 1018.5
20260508141644 16 107 0.0 0.0 0.00 0.00 0.00 78 1018.4
20260508141142 15 107 0.0 0.0 0.00 0.00 0.00 80 1018.5
20260508140639 15 95 0.0 0.0 0.00 0.00 0.00 77 1018.1
20260508140136 15 16 0.0 0.0 0.00 0.00 0.00 80 1018.2
20260508135631 15 16 0.0 0.0 0.00 0.00 0.00 82 1018.2
20260508135127 14 16 0.0 0.0 0.00 0.00 0.00 84 1018.4
20260508134624 14 15 0.0 0.0 0.00 0.00 0.00 84 1018.2
20260508134122 13 15 0.0 0.0 0.00 0.00 0.00 85 1018.4
20260508133618 13 19 0.0 0.0 0.00 0.00 0.00 85 1018.6
20260508133116 13 19 0.0 0.0 0.00 0.00 0.00 85 1018.6
20260508132613 13 19 0.0 0.0 0.00 0.00 0.00 86 1018.6
20260508132110 13 19 0.0 0.0 0.00 0.00 0.00 86 1018.6
20260508131605 13 19 0.0 0.0 0.00 0.00 0.00 87 1018.5
20260508131103 13 19 0.0 0.0 0.00 0.00 0.00 87 1018.4
20260508130559 12 19 0.0 0.0 0.00 0.00 0.00 88 1018.5
20260508130055 12 19 0.0 0.0 0.00 0.00 0.00 89 1018.4
20260508125551 12 19 0.0 0.0 0.00 0.00 0.00 90 1018.6
20260508125049 12 19 0.0 0.0 0.00 0.00 0.00 90 1018.5
20260508124548 12 18 0.0 0.0 0.00 0.00 0.00 92 1018.4